Year,Month,Day,Hour,Minute,Value (Times are PST for temperature in C)
2016,08,18,00,00,13.30
2016,08,18,00,01,13.30
2016,08,18,00,02,13.30
2016,08,18,00,03,13.30
2016,08,18,00,04,13.30
2016,08,18,00,05,13.40
2016,08,18,00,06,13.40
2016,08,18,00,07,13.50
2016,08,18,00,08,13.60
2016,08,18,00,09,13.70
2016,08,18,00,10,13.80
2016,08,18,00,11,13.90
2016,08,18,00,12,14.00
2016,08,18,00,13,14.10
2016,08,18,00,14,14.10
2016,08,18,00,15,14.20
2016,08,18,00,16,14.20
2016,08,18,00,17,14.20
2016,08,18,00,18,14.20
2016,08,18,00,19,14.20
2016,08,18,00,20,14.20
2016,08,18,00,21,14.20
2016,08,18,00,22,14.20
2016,08,18,00,23,14.20
2016,08,18,00,24,14.20
2016,08,18,00,25,14.10
2016,08,18,00,26,14.10
2016,08,18,00,27,14.00
2016,08,18,00,28,13.90
2016,08,18,00,29,13.90
2016,08,18,00,30,13.80
2016,08,18,00,31,13.70
2016,08,18,00,32,13.60
2016,08,18,00,33,13.60
2016,08,18,00,34,13.50
2016,08,18,00,35,13.40
2016,08,18,00,36,13.40
2016,08,18,00,37,13.30
2016,08,18,00,38,13.30
2016,08,18,00,39,13.20
2016,08,18,00,40,13.20
2016,08,18,00,41,13.20
2016,08,18,00,42,13.20
2016,08,18,00,43,13.10
2016,08,18,00,44,13.10
2016,08,18,00,45,13.00
2016,08,18,00,46,13.00
2016,08,18,00,47,12.90
2016,08,18,00,48,12.90
2016,08,18,00,49,12.90
2016,08,18,00,50,12.90
2016,08,18,00,51,12.90
2016,08,18,00,52,12.90
2016,08,18,00,53,12.90
2016,08,18,00,54,12.90
2016,08,18,00,55,13.00
2016,08,18,00,56,13.00
2016,08,18,00,57,13.00
2016,08,18,00,58,12.90
2016,08,18,00,59,12.90
2016,08,18,01,00,13.00
2016,08,18,01,01,13.00
2016,08,18,01,02,13.10
2016,08,18,01,03,13.10
2016,08,18,01,04,13.10
2016,08,18,01,05,13.10
2016,08,18,01,06,13.00
2016,08,18,01,07,13.00
2016,08,18,01,08,13.00
2016,08,18,01,09,13.10
2016,08,18,01,10,13.10
2016,08,18,01,11,13.10
2016,08,18,01,12,13.10
2016,08,18,01,13,13.10
2016,08,18,01,14,13.10
2016,08,18,01,15,13.10
2016,08,18,01,16,13.20
2016,08,18,01,17,13.20
2016,08,18,01,18,13.20
2016,08,18,01,19,13.20
2016,08,18,01,20,13.20
2016,08,18,01,21,13.20
2016,08,18,01,22,13.20
2016,08,18,01,23,13.20
2016,08,18,01,24,13.20
2016,08,18,01,25,13.20
2016,08,18,01,26,13.30
2016,08,18,01,27,13.30
2016,08,18,01,28,13.30
2016,08,18,01,29,13.30
2016,08,18,01,30,13.30
2016,08,18,01,31,13.40
2016,08,18,01,32,13.40
2016,08,18,01,33,13.50
2016,08,18,01,34,13.50
2016,08,18,01,35,13.50
2016,08,18,01,36,13.50
2016,08,18,01,37,13.60
2016,08,18,01,38,13.60
2016,08,18,01,39,13.60
2016,08,18,01,40,13.60
2016,08,18,01,41,13.60
2016,08,18,01,42,13.60
2016,08,18,01,43,13.60
2016,08,18,01,44,13.60
2016,08,18,01,45,13.60
2016,08,18,01,46,13.60
2016,08,18,01,47,13.60
2016,08,18,01,48,13.60
2016,08,18,01,49,13.60
2016,08,18,01,50,13.60
2016,08,18,01,51,13.60
2016,08,18,01,52,13.60
2016,08,18,01,53,13.60
2016,08,18,01,54,13.60
2016,08,18,01,55,13.60
2016,08,18,01,56,13.60
2016,08,18,01,57,13.60
2016,08,18,01,58,13.60
2016,08,18,01,59,13.60
2016,08,18,02,00,13.60
2016,08,18,02,01,13.60
2016,08,18,02,02,13.60
2016,08,18,02,03,13.60
2016,08,18,02,04,13.60
2016,08,18,02,05,13.60
2016,08,18,02,06,13.60
2016,08,18,02,07,13.60
2016,08,18,02,08,13.60
2016,08,18,02,09,13.60
2016,08,18,02,10,13.60
2016,08,18,02,11,13.70
2016,08,18,02,12,13.70
2016,08,18,02,13,13.70
2016,08,18,02,14,13.70
2016,08,18,02,15,13.70
2016,08,18,02,16,13.80
2016,08,18,02,17,13.80
2016,08,18,02,18,13.90
2016,08,18,02,19,13.90
2016,08,18,02,20,14.00
2016,08,18,02,21,14.00
2016,08,18,02,22,14.10
2016,08,18,02,23,14.10
2016,08,18,02,24,14.20
2016,08,18,02,25,14.20
2016,08,18,02,26,14.30
2016,08,18,02,27,14.30
2016,08,18,02,28,14.40
2016,08,18,02,29,14.40
2016,08,18,02,30,14.40
2016,08,18,02,31,14.50
2016,08,18,02,32,14.60
2016,08,18,02,33,14.60
2016,08,18,02,34,14.70
2016,08,18,02,35,14.70
2016,08,18,02,36,14.80
2016,08,18,02,37,14.80
2016,08,18,02,38,14.80
2016,08,18,02,39,14.80
2016,08,18,02,40,14.90
2016,08,18,02,41,14.90
2016,08,18,02,42,14.90
2016,08,18,02,43,14.90
2016,08,18,02,44,14.90
2016,08,18,02,45,14.90
2016,08,18,02,46,14.90
2016,08,18,02,47,14.80
2016,08,18,02,48,14.80
2016,08,18,02,49,14.80
2016,08,18,02,50,14.80
2016,08,18,02,51,14.80
2016,08,18,02,52,14.70
2016,08,18,02,53,14.70
2016,08,18,02,54,14.70
2016,08,18,02,55,14.70
2016,08,18,02,56,14.70
2016,08,18,02,57,14.70
2016,08,18,02,58,14.70
2016,08,18,02,59,14.70
2016,08,18,03,00,14.70
2016,08,18,03,01,14.60
2016,08,18,03,02,14.60
2016,08,18,03,03,14.70
2016,08,18,03,04,14.60
2016,08,18,03,05,14.60
2016,08,18,03,06,14.60
2016,08,18,03,07,14.60
2016,08,18,03,08,14.70
2016,08,18,03,09,14.70
2016,08,18,03,10,14.70
2016,08,18,03,11,14.70
2016,08,18,03,12,14.70
2016,08,18,03,13,14.80
2016,08,18,03,14,14.80
2016,08,18,03,15,14.80
2016,08,18,03,16,14.90
2016,08,18,03,17,14.90
2016,08,18,03,18,14.90
2016,08,18,03,19,14.90
2016,08,18,03,20,15.00
2016,08,18,03,21,15.00
2016,08,18,03,22,15.00
2016,08,18,03,23,15.10
2016,08,18,03,24,15.10
2016,08,18,03,25,15.10
2016,08,18,03,26,15.10
2016,08,18,03,27,15.10
2016,08,18,03,28,15.10
2016,08,18,03,29,15.10
2016,08,18,03,30,15.10
2016,08,18,03,31,15.10
2016,08,18,03,32,15.20
2016,08,18,03,33,15.20
2016,08,18,03,34,15.20
2016,08,18,03,35,15.20
2016,08,18,03,36,15.20
2016,08,18,03,37,15.30
2016,08,18,03,38,15.30
2016,08,18,03,39,15.30
2016,08,18,03,40,15.30
2016,08,18,03,41,15.30
2016,08,18,03,42,15.40
2016,08,18,03,43,15.40
2016,08,18,03,44,15.40
2016,08,18,03,45,15.40
2016,08,18,03,46,15.40
2016,08,18,03,47,15.40
2016,08,18,03,48,15.50
2016,08,18,03,49,15.50
2016,08,18,03,50,15.50
2016,08,18,03,51,15.50
2016,08,18,03,52,15.50
2016,08,18,03,53,15.50
2016,08,18,03,54,15.40
2016,08,18,03,55,15.40
2016,08,18,03,56,15.30
2016,08,18,03,57,15.20
2016,08,18,03,58,15.10
2016,08,18,03,59,15.00
2016,08,18,04,00,14.90
2016,08,18,04,01,14.80
2016,08,18,04,02,14.70
2016,08,18,04,03,14.60
2016,08,18,04,04,14.50
2016,08,18,04,05,14.40
2016,08,18,04,06,14.30
2016,08,18,04,07,14.30
2016,08,18,04,08,14.20
2016,08,18,04,09,14.00
2016,08,18,04,10,14.00
2016,08,18,04,11,13.90
2016,08,18,04,12,13.80
2016,08,18,04,13,13.60
2016,08,18,04,14,13.50
2016,08,18,04,15,13.50
2016,08,18,04,16,13.50
2016,08,18,04,17,13.40
2016,08,18,04,18,13.40
2016,08,18,04,19,13.40
2016,08,18,04,20,13.40
2016,08,18,04,21,13.40
2016,08,18,04,22,13.40
2016,08,18,04,23,13.40
2016,08,18,04,24,13.40
2016,08,18,04,25,13.50
2016,08,18,04,26,13.50
2016,08,18,04,27,13.60
2016,08,18,04,28,13.70
2016,08,18,04,29,13.80
2016,08,18,04,30,13.80
2016,08,18,04,31,14.10
2016,08,18,04,32,14.20
2016,08,18,04,33,14.20
2016,08,18,04,34,14.30
2016,08,18,04,35,14.30
2016,08,18,04,36,14.30
2016,08,18,04,37,14.40
2016,08,18,04,38,14.40
2016,08,18,04,39,14.40
2016,08,18,04,40,14.30
2016,08,18,04,41,14.30
2016,08,18,04,42,14.40
2016,08,18,04,43,14.40
2016,08,18,04,44,14.60
2016,08,18,04,45,14.60
2016,08,18,04,46,14.70
2016,08,18,04,47,14.80
2016,08,18,04,48,14.80
2016,08,18,04,49,14.70
2016,08,18,04,50,14.60
2016,08,18,04,51,14.40
2016,08,18,04,52,14.20
2016,08,18,04,53,14.10
2016,08,18,04,54,13.90
2016,08,18,04,55,13.80
2016,08,18,04,56,13.70
2016,08,18,04,57,13.70
2016,08,18,04,58,13.70
2016,08,18,04,59,13.70
2016,08,18,05,00,13.70
2016,08,18,05,01,13.60
2016,08,18,05,02,13.60
2016,08,18,05,03,13.60
2016,08,18,05,04,13.60
2016,08,18,05,05,13.60
2016,08,18,05,06,13.60
2016,08,18,05,07,13.60
2016,08,18,05,08,13.60
2016,08,18,05,09,13.60
2016,08,18,05,10,13.70
2016,08,18,05,11,13.70
2016,08,18,05,12,13.70
2016,08,18,05,13,13.80
2016,08,18,05,14,13.80
2016,08,18,05,15,13.80
2016,08,18,05,16,13.80
2016,08,18,05,17,13.70
2016,08,18,05,18,13.70
2016,08,18,05,19,13.70
2016,08,18,05,20,13.70
2016,08,18,05,21,13.70
2016,08,18,05,22,13.70
2016,08,18,05,23,13.70
2016,08,18,05,24,13.70
2016,08,18,05,25,13.70
2016,08,18,05,26,13.60
2016,08,18,05,27,13.60
2016,08,18,05,28,13.60
2016,08,18,05,29,13.60
2016,08,18,05,30,13.60
2016,08,18,05,31,13.70
2016,08,18,05,32,13.70
2016,08,18,05,33,13.80
2016,08,18,05,34,13.80
2016,08,18,05,35,13.80
2016,08,18,05,36,13.90
2016,08,18,05,37,13.90
2016,08,18,05,38,13.90
2016,08,18,05,39,13.90
2016,08,18,05,40,13.90
2016,08,18,05,41,13.90
2016,08,18,05,42,13.90
2016,08,18,05,43,14.00
2016,08,18,05,44,14.00
2016,08,18,05,45,14.00
2016,08,18,05,46,14.00
2016,08,18,05,47,14.10
2016,08,18,05,48,14.10
2016,08,18,05,49,14.10
2016,08,18,05,50,14.20
2016,08,18,05,51,14.30
2016,08,18,05,52,14.50
2016,08,18,05,53,14.60
2016,08,18,05,54,14.70
2016,08,18,05,55,14.80
2016,08,18,05,56,14.80
2016,08,18,05,57,14.90
2016,08,18,05,58,14.90
2016,08,18,05,59,15.00
2016,08,18,06,00,15.00
2016,08,18,06,01,15.10
2016,08,18,06,02,15.10
2016,08,18,06,03,15.10
2016,08,18,06,04,15.10
2016,08,18,06,05,15.10
2016,08,18,06,06,15.10
2016,08,18,06,07,15.10
2016,08,18,06,08,15.20
2016,08,18,06,09,15.20
2016,08,18,06,10,15.20
2016,08,18,06,11,15.30
2016,08,18,06,12,15.30
2016,08,18,06,13,15.40
2016,08,18,06,14,15.40
2016,08,18,06,15,15.50
2016,08,18,06,16,15.50
2016,08,18,06,17,15.50
2016,08,18,06,18,15.60
2016,08,18,06,19,15.60
2016,08,18,06,20,15.60
2016,08,18,06,21,15.70
2016,08,18,06,22,15.70
2016,08,18,06,23,15.70
2016,08,18,06,24,15.80
2016,08,18,06,25,15.80
2016,08,18,06,26,15.80
2016,08,18,06,27,15.80
2016,08,18,06,28,15.80
2016,08,18,06,29,15.80
2016,08,18,06,30,15.60
2016,08,18,06,31,15.60
2016,08,18,06,32,15.60
2016,08,18,06,33,15.60
2016,08,18,06,34,15.60
2016,08,18,06,35,15.60
2016,08,18,06,36,15.70
2016,08,18,06,37,15.70
2016,08,18,06,38,15.70
2016,08,18,06,39,15.70
2016,08,18,06,40,15.80
2016,08,18,06,41,15.80
2016,08,18,06,42,15.80
2016,08,18,06,43,15.80
2016,08,18,06,44,15.80
2016,08,18,06,45,15.80
2016,08,18,06,46,15.80
2016,08,18,06,47,15.80
2016,08,18,06,48,15.90
2016,08,18,06,49,15.90
2016,08,18,06,50,15.90
2016,08,18,06,51,15.90
2016,08,18,06,52,15.90
2016,08,18,06,53,15.90
2016,08,18,06,54,15.90
2016,08,18,06,55,15.90
2016,08,18,06,56,15.90
2016,08,18,06,57,15.90
2016,08,18,06,58,16.00
2016,08,18,06,59,16.00
2016,08,18,07,00,16.00
2016,08,18,07,01,16.00
2016,08,18,07,02,16.00
2016,08,18,07,03,16.00
2016,08,18,07,04,16.00
2016,08,18,07,05,16.00
2016,08,18,07,06,16.00
2016,08,18,07,07,16.00
2016,08,18,07,08,16.00
2016,08,18,07,09,16.00
2016,08,18,07,10,16.00
2016,08,18,07,11,16.00
2016,08,18,07,12,16.00
2016,08,18,07,13,16.00
2016,08,18,07,14,16.00
2016,08,18,07,15,16.00
2016,08,18,07,16,16.10
2016,08,18,07,17,16.10
2016,08,18,07,18,16.10
2016,08,18,07,19,16.10
2016,08,18,07,20,16.10
2016,08,18,07,21,16.10
2016,08,18,07,22,16.10
2016,08,18,07,23,16.10
2016,08,18,07,24,16.10
2016,08,18,07,25,16.10
2016,08,18,07,26,16.10
2016,08,18,07,27,16.10
2016,08,18,07,28,16.10
2016,08,18,07,29,16.10
2016,08,18,07,30,16.20
2016,08,18,07,31,16.10
2016,08,18,07,32,16.10
2016,08,18,07,33,16.10
2016,08,18,07,34,16.10
2016,08,18,07,35,16.10
2016,08,18,07,36,16.10
2016,08,18,07,37,16.20
2016,08,18,07,38,16.20
2016,08,18,07,39,16.20
2016,08,18,07,40,16.20
2016,08,18,07,41,16.20
2016,08,18,07,42,16.20
2016,08,18,07,43,16.20
2016,08,18,07,44,16.20
2016,08,18,07,45,16.30
2016,08,18,07,46,16.30
2016,08,18,07,47,16.30
2016,08,18,07,48,16.30
2016,08,18,07,49,16.30
2016,08,18,07,50,16.30
2016,08,18,07,51,16.20
2016,08,18,07,52,16.20
2016,08,18,07,53,16.20
2016,08,18,07,54,16.20
2016,08,18,07,55,16.20
2016,08,18,07,56,16.20
2016,08,18,07,57,16.20
2016,08,18,07,58,16.20
2016,08,18,07,59,16.20
2016,08,18,08,00,16.30
2016,08,18,08,01,16.30
2016,08,18,08,02,16.30
2016,08,18,08,03,16.30
2016,08,18,08,04,16.30
2016,08,18,08,05,16.30
2016,08,18,08,06,16.30
2016,08,18,08,07,16.30
2016,08,18,08,08,16.30
2016,08,18,08,09,16.30
2016,08,18,08,10,16.40
2016,08,18,08,11,16.40
2016,08,18,08,12,16.40
2016,08,18,08,13,16.50
2016,08,18,08,14,16.50
2016,08,18,08,15,16.60
2016,08,18,08,16,16.60
2016,08,18,08,17,16.60
2016,08,18,08,18,16.60
2016,08,18,08,19,16.70
2016,08,18,08,20,16.70
2016,08,18,08,21,16.90
2016,08,18,08,22,17.00
2016,08,18,08,23,17.10
2016,08,18,08,24,17.20
2016,08,18,08,25,17.30
2016,08,18,08,26,17.30
2016,08,18,08,27,17.30
2016,08,18,08,28,17.30
2016,08,18,08,29,17.30
2016,08,18,08,30,17.30
2016,08,18,08,31,17.30
2016,08,18,08,32,17.30
2016,08,18,08,33,17.20
2016,08,18,08,34,17.20
2016,08,18,08,35,17.20
2016,08,18,08,36,17.20
2016,08,18,08,37,17.20
2016,08,18,08,38,17.20
2016,08,18,08,39,17.10
2016,08,18,08,40,17.10
2016,08,18,08,41,17.10
2016,08,18,08,42,17.10
2016,08,18,08,43,17.10
2016,08,18,08,44,17.10
2016,08,18,08,45,17.10
2016,08,18,08,46,17.00
2016,08,18,08,47,16.90
2016,08,18,08,48,16.90
2016,08,18,08,49,16.80
2016,08,18,08,50,16.80
2016,08,18,08,51,16.70
2016,08,18,08,52,16.70
2016,08,18,08,53,16.70
2016,08,18,08,54,16.70
2016,08,18,08,55,16.70
2016,08,18,08,56,16.70
2016,08,18,08,57,16.70
2016,08,18,08,58,16.70
2016,08,18,08,59,16.70
2016,08,18,09,00,16.70
2016,08,18,09,01,16.60
2016,08,18,09,02,16.60
2016,08,18,09,03,16.60
2016,08,18,09,04,16.70
2016,08,18,09,05,16.70
2016,08,18,09,06,16.70
2016,08,18,09,07,16.70
2016,08,18,09,08,16.70
2016,08,18,09,09,16.70
2016,08,18,09,10,16.80
2016,08,18,09,11,16.80
2016,08,18,09,12,16.80
2016,08,18,09,13,16.80
2016,08,18,09,14,16.80
2016,08,18,09,15,16.80
2016,08,18,09,16,16.80
2016,08,18,09,17,16.90
2016,08,18,09,18,16.90
2016,08,18,09,19,16.90
2016,08,18,09,20,16.90
2016,08,18,09,21,16.90
2016,08,18,09,22,16.90
2016,08,18,09,23,16.90
2016,08,18,09,24,17.00
2016,08,18,09,25,17.00
2016,08,18,09,26,17.00
2016,08,18,09,27,17.10
2016,08,18,09,28,17.10
2016,08,18,09,29,17.10
2016,08,18,09,30,17.10
2016,08,18,09,31,17.20
2016,08,18,09,32,17.20
2016,08,18,09,33,17.20
2016,08,18,09,34,17.30
2016,08,18,09,35,17.30
2016,08,18,09,36,17.30
2016,08,18,09,37,17.30
2016,08,18,09,38,17.20
2016,08,18,09,39,17.20
2016,08,18,09,40,17.20
2016,08,18,09,41,17.30
2016,08,18,09,42,17.30
2016,08,18,09,43,17.40
2016,08,18,09,44,17.40
2016,08,18,09,45,17.50
2016,08,18,09,46,17.60
2016,08,18,09,47,17.60
2016,08,18,09,48,17.70
2016,08,18,09,49,17.80
2016,08,18,09,50,17.80
2016,08,18,09,51,17.80
2016,08,18,09,52,17.80
2016,08,18,09,53,17.80
2016,08,18,09,54,17.80
2016,08,18,09,55,17.80
2016,08,18,09,56,17.80
2016,08,18,09,57,17.90
2016,08,18,09,58,17.90
2016,08,18,09,59,17.90
2016,08,18,10,00,17.90
2016,08,18,10,01,17.90
2016,08,18,10,02,18.00
2016,08,18,10,03,18.00
2016,08,18,10,04,18.10
2016,08,18,10,05,18.10
2016,08,18,10,06,18.10
2016,08,18,10,07,18.20
2016,08,18,10,08,18.20
2016,08,18,10,09,18.10
2016,08,18,10,10,18.10
2016,08,18,10,11,18.20
2016,08,18,10,12,18.20
2016,08,18,10,13,18.20
2016,08,18,10,14,18.30
2016,08,18,10,15,18.30
2016,08,18,10,16,18.30
2016,08,18,10,17,18.30
2016,08,18,10,18,18.40
2016,08,18,10,19,18.50
2016,08,18,10,20,18.50
2016,08,18,10,21,18.60
2016,08,18,10,22,18.50
2016,08,18,10,23,18.50
2016,08,18,10,24,18.50
2016,08,18,10,25,18.40
2016,08,18,10,26,18.40
2016,08,18,10,27,18.40
2016,08,18,10,28,18.40
2016,08,18,10,29,18.50
2016,08,18,10,30,18.50
2016,08,18,10,31,18.60
2016,08,18,10,32,18.60
2016,08,18,10,33,18.70
2016,08,18,10,34,18.70
2016,08,18,10,35,18.80
2016,08,18,10,36,18.80
2016,08,18,10,37,18.90
2016,08,18,10,38,19.00
2016,08,18,10,39,19.10
2016,08,18,10,40,19.30
2016,08,18,10,41,19.40
2016,08,18,10,42,19.50
2016,08,18,10,43,19.70
2016,08,18,10,44,19.80
2016,08,18,10,45,19.80
2016,08,18,10,46,19.80
2016,08,18,10,47,19.90
2016,08,18,10,48,20.00
2016,08,18,10,49,20.10
2016,08,18,10,50,20.20
2016,08,18,10,51,20.30
2016,08,18,10,52,20.40
2016,08,18,10,53,20.50
2016,08,18,10,54,20.60
2016,08,18,10,55,20.60
2016,08,18,10,56,20.70
2016,08,18,10,57,20.80
2016,08,18,10,58,20.90
2016,08,18,10,59,20.90
2016,08,18,11,00,21.00
2016,08,18,11,01,21.10
2016,08,18,11,02,21.10
2016,08,18,11,03,21.20
2016,08,18,11,04,21.20
2016,08,18,11,05,21.30
2016,08,18,11,06,21.30
2016,08,18,11,07,21.30
2016,08,18,11,08,21.30
2016,08,18,11,09,21.40
2016,08,18,11,10,21.40
2016,08,18,11,11,21.40
2016,08,18,11,12,21.40
2016,08,18,11,13,21.40
2016,08,18,11,14,21.40
2016,08,18,11,15,21.40
2016,08,18,11,16,21.40
2016,08,18,11,17,21.40
2016,08,18,11,18,21.40
2016,08,18,11,19,21.40
2016,08,18,11,20,21.30
2016,08,18,11,21,21.30
2016,08,18,11,22,21.30
2016,08,18,11,23,21.30
2016,08,18,11,24,21.30
2016,08,18,11,25,21.30
2016,08,18,11,26,21.30
2016,08,18,11,27,21.30
2016,08,18,11,28,21.30
2016,08,18,11,29,21.30
2016,08,18,11,30,21.30
2016,08,18,11,31,21.40
2016,08,18,11,32,21.40
2016,08,18,11,33,21.50
2016,08,18,11,34,21.50
2016,08,18,11,35,21.60
2016,08,18,11,36,21.60
2016,08,18,11,37,21.60
2016,08,18,11,38,21.50
2016,08,18,11,39,21.40
2016,08,18,11,40,21.30
2016,08,18,11,41,21.30
2016,08,18,11,42,21.20
2016,08,18,11,43,21.20
2016,08,18,11,44,21.20
2016,08,18,11,45,21.20
2016,08,18,11,46,21.20
2016,08,18,11,47,21.20
2016,08,18,11,48,21.20
2016,08,18,11,49,21.20
2016,08,18,11,50,21.20
2016,08,18,11,51,21.20
2016,08,18,11,52,21.20
2016,08,18,11,53,21.20
2016,08,18,11,54,21.20
2016,08,18,11,55,21.20
2016,08,18,11,56,21.20
2016,08,18,11,57,21.20
2016,08,18,11,58,21.30
2016,08,18,11,59,21.30
2016,08,18,12,00,21.30
2016,08,18,12,01,21.30
2016,08,18,12,02,21.30
2016,08,18,12,03,21.40
2016,08,18,12,04,21.40
2016,08,18,12,05,21.40
2016,08,18,12,06,21.40
2016,08,18,12,07,21.40
2016,08,18,12,08,21.40
2016,08,18,12,09,21.50
2016,08,18,12,10,21.50
2016,08,18,12,11,21.50
2016,08,18,12,12,21.50
2016,08,18,12,13,21.50
2016,08,18,12,14,21.50
2016,08,18,12,15,21.50
2016,08,18,12,16,21.40
2016,08,18,12,17,21.40
2016,08,18,12,18,21.40
2016,08,18,12,19,21.40
2016,08,18,12,20,21.40
2016,08,18,12,21,21.40
2016,08,18,12,22,21.40
2016,08,18,12,23,21.40
2016,08,18,12,24,21.40
2016,08,18,12,25,21.40
2016,08,18,12,26,21.40
2016,08,18,12,27,21.40
2016,08,18,12,28,21.30
2016,08,18,12,29,21.10
2016,08,18,12,30,20.80
2016,08,18,12,31,20.40
2016,08,18,12,32,20.20
2016,08,18,12,33,20.00
2016,08,18,12,34,19.80
2016,08,18,12,35,19.40
2016,08,18,12,36,19.10
2016,08,18,12,37,19.10
2016,08,18,12,38,19.20
2016,08,18,12,39,19.40
2016,08,18,12,40,19.70
2016,08,18,12,41,19.80
2016,08,18,12,42,19.90
2016,08,18,12,43,20.40
2016,08,18,12,44,20.60
2016,08,18,12,45,20.70
2016,08,18,12,46,20.90
2016,08,18,12,47,21.00
2016,08,18,12,48,21.10
2016,08,18,12,49,21.30
2016,08,18,12,50,21.40
2016,08,18,12,51,21.40
2016,08,18,12,52,21.50
2016,08,18,12,53,21.60
2016,08,18,12,54,21.60
2016,08,18,12,55,21.70
2016,08,18,12,56,21.70
2016,08,18,12,57,21.70
2016,08,18,12,58,21.70
2016,08,18,12,59,21.70
2016,08,18,13,00,21.70
2016,08,18,13,01,21.70
2016,08,18,13,02,21.70
2016,08,18,13,03,21.70
2016,08,18,13,04,21.80
2016,08,18,13,05,21.80
2016,08,18,13,06,21.80
2016,08,18,13,07,21.90
2016,08,18,13,08,21.90
2016,08,18,13,09,22.00
2016,08,18,13,10,22.00
2016,08,18,13,11,22.00
2016,08,18,13,12,22.10
2016,08,18,13,13,22.10
2016,08,18,13,14,22.10
2016,08,18,13,15,22.10
2016,08,18,13,16,22.20
2016,08,18,13,17,22.20
2016,08,18,13,18,22.20
2016,08,18,13,19,22.20
2016,08,18,13,20,22.30
2016,08,18,13,21,22.40
2016,08,18,13,22,22.40
2016,08,18,13,23,22.50
2016,08,18,13,24,22.60
2016,08,18,13,25,22.60
2016,08,18,13,26,22.70
2016,08,18,13,27,22.70
2016,08,18,13,28,22.70
2016,08,18,13,29,22.60
2016,08,18,13,30,22.60
2016,08,18,13,31,22.60
2016,08,18,13,32,22.60
2016,08,18,13,33,22.60
2016,08,18,13,34,22.60
2016,08,18,13,35,22.60
2016,08,18,13,36,22.60
2016,08,18,13,37,22.70
2016,08,18,13,38,22.70
2016,08,18,13,39,22.70
2016,08,18,13,40,22.80
2016,08,18,13,41,22.80
2016,08,18,13,42,22.80
2016,08,18,13,43,22.80
2016,08,18,13,44,22.80
2016,08,18,13,45,22.80
2016,08,18,13,46,22.80
2016,08,18,13,47,22.80
2016,08,18,13,48,22.90
2016,08,18,13,49,22.90
2016,08,18,13,50,22.90
2016,08,18,13,51,22.90
2016,08,18,13,52,23.00
2016,08,18,13,53,23.00
2016,08,18,13,54,23.00
2016,08,18,13,55,23.00
2016,08,18,13,56,23.00
2016,08,18,13,57,23.00
2016,08,18,13,58,23.00
2016,08,18,13,59,23.00
2016,08,18,14,00,22.90
2016,08,18,14,01,22.90
2016,08,18,14,02,22.80
2016,08,18,14,03,22.70
2016,08,18,14,04,22.70
2016,08,18,14,05,22.60
2016,08,18,14,06,22.60
2016,08,18,14,07,22.60
2016,08,18,14,08,22.70
2016,08,18,14,09,22.80
2016,08,18,14,10,22.90
2016,08,18,14,11,22.90
2016,08,18,14,12,23.00
2016,08,18,14,13,23.10
2016,08,18,14,14,23.10
2016,08,18,14,15,23.10
2016,08,18,14,16,23.10
2016,08,18,14,17,23.20
2016,08,18,14,18,23.20
2016,08,18,14,19,23.20
2016,08,18,14,20,23.10
2016,08,18,14,21,23.10
2016,08,18,14,22,23.10
2016,08,18,14,23,23.00
2016,08,18,14,24,22.90
2016,08,18,14,25,22.80
2016,08,18,14,26,22.80
2016,08,18,14,27,22.80
2016,08,18,14,28,22.80
2016,08,18,14,29,22.80
2016,08,18,14,30,22.90
2016,08,18,14,31,22.90
2016,08,18,14,32,22.90
2016,08,18,14,33,23.00
2016,08,18,14,34,23.00
2016,08,18,14,35,23.10
2016,08,18,14,36,23.10
2016,08,18,14,37,23.10
2016,08,18,14,38,23.10
2016,08,18,14,39,23.10
2016,08,18,14,40,23.10
2016,08,18,14,41,23.20
2016,08,18,14,42,23.20
2016,08,18,14,43,23.30
2016,08,18,14,44,23.30
2016,08,18,14,45,23.30
2016,08,18,14,46,23.40
2016,08,18,14,47,23.40
2016,08,18,14,48,23.50
2016,08,18,14,49,23.60
2016,08,18,14,50,23.60
2016,08,18,14,51,23.70
2016,08,18,14,52,23.70
2016,08,18,14,53,23.70
2016,08,18,14,54,23.80
2016,08,18,14,55,23.80
2016,08,18,14,56,23.80
2016,08,18,14,57,23.80
2016,08,18,14,58,23.80
2016,08,18,14,59,23.80
2016,08,18,15,00,23.80
2016,08,18,15,01,23.80
2016,08,18,15,02,23.80
2016,08,18,15,03,23.70
2016,08,18,15,04,23.70
2016,08,18,15,05,23.70
2016,08,18,15,06,23.70
2016,08,18,15,07,23.60
2016,08,18,15,08,23.60
2016,08,18,15,09,23.50
2016,08,18,15,10,23.40
2016,08,18,15,11,23.40
2016,08,18,15,12,23.30
2016,08,18,15,13,23.30
2016,08,18,15,14,23.30
2016,08,18,15,15,23.20
2016,08,18,15,16,23.20
2016,08,18,15,17,23.20
2016,08,18,15,18,23.10
2016,08,18,15,19,23.10
2016,08,18,15,20,23.10
2016,08,18,15,21,23.00
2016,08,18,15,22,22.90
2016,08,18,15,23,22.80
2016,08,18,15,24,22.70
2016,08,18,15,25,22.60
2016,08,18,15,26,22.50
2016,08,18,15,27,22.40
2016,08,18,15,28,22.40
2016,08,18,15,29,22.40
2016,08,18,15,30,22.40
2016,08,18,15,31,22.50
2016,08,18,15,32,22.60
2016,08,18,15,33,22.80
2016,08,18,15,34,22.90
2016,08,18,15,35,23.10
2016,08,18,15,36,23.30
2016,08,18,15,37,23.50
2016,08,18,15,38,23.50
2016,08,18,15,39,23.70
2016,08,18,15,40,23.70
2016,08,18,15,41,23.80
2016,08,18,15,42,23.90
2016,08,18,15,43,24.00
2016,08,18,15,44,24.00
2016,08,18,15,45,24.00
2016,08,18,15,46,24.00
2016,08,18,15,47,23.90
2016,08,18,15,48,23.80
2016,08,18,15,49,23.60
2016,08,18,15,50,23.50
2016,08,18,15,51,23.40
2016,08,18,15,52,23.20
2016,08,18,15,53,23.10
2016,08,18,15,54,23.00
2016,08,18,15,55,22.80
2016,08,18,15,56,22.70
2016,08,18,15,57,22.60
2016,08,18,15,58,22.60
2016,08,18,15,59,22.60
2016,08,18,16,00,22.70
2016,08,18,16,01,22.90
2016,08,18,16,02,23.10
2016,08,18,16,03,23.20
2016,08,18,16,04,23.20
2016,08,18,16,05,23.30
2016,08,18,16,06,23.40
2016,08,18,16,07,23.40
2016,08,18,16,08,23.20
2016,08,18,16,09,23.00
2016,08,18,16,10,22.90
2016,08,18,16,11,22.70
2016,08,18,16,12,22.60
2016,08,18,16,13,22.60
2016,08,18,16,14,22.70
2016,08,18,16,15,22.70
2016,08,18,16,16,22.80
2016,08,18,16,17,22.90
2016,08,18,16,18,23.00
2016,08,18,16,19,23.10
2016,08,18,16,20,23.30
2016,08,18,16,21,23.40
2016,08,18,16,22,23.60
2016,08,18,16,23,23.70
2016,08,18,16,24,24.00
2016,08,18,16,25,24.20
2016,08,18,16,26,24.30
2016,08,18,16,27,24.50
2016,08,18,16,28,24.70
2016,08,18,16,29,24.90
2016,08,18,16,30,25.00
2016,08,18,16,31,25.10
2016,08,18,16,32,25.20
2016,08,18,16,33,25.30
2016,08,18,16,34,25.50
2016,08,18,16,35,25.60
2016,08,18,16,36,25.70
2016,08,18,16,37,25.70
2016,08,18,16,38,25.70
2016,08,18,16,39,25.80
2016,08,18,16,40,25.90
2016,08,18,16,41,25.90
2016,08,18,16,42,25.90
2016,08,18,16,43,26.00
2016,08,18,16,44,26.00
2016,08,18,16,45,26.10
2016,08,18,16,46,26.20
2016,08,18,16,47,26.30
2016,08,18,16,48,26.40
2016,08,18,16,49,26.40
2016,08,18,16,50,26.50
2016,08,18,16,51,26.60
2016,08,18,16,52,26.60
2016,08,18,16,53,26.70
2016,08,18,16,54,26.70
2016,08,18,16,55,26.70
2016,08,18,16,56,26.70
2016,08,18,16,57,26.80
2016,08,18,16,58,26.80
2016,08,18,16,59,26.80
2016,08,18,17,00,26.80
2016,08,18,17,01,26.80
2016,08,18,17,02,26.90
2016,08,18,17,03,26.90
2016,08,18,17,04,26.90
2016,08,18,17,05,26.90
2016,08,18,17,06,26.90
2016,08,18,17,07,26.90
2016,08,18,17,08,26.80
2016,08,18,17,09,26.80
2016,08,18,17,10,26.80
2016,08,18,17,11,26.80
2016,08,18,17,12,26.80
2016,08,18,17,13,26.80
2016,08,18,17,14,26.80
2016,08,18,17,15,26.80
2016,08,18,17,16,26.80
2016,08,18,17,17,26.80
2016,08,18,17,18,26.80
2016,08,18,17,19,26.80